www.pogodaiklimat.ru

Погода и климат >> Архив погоды >> Россия >> Хабаровский край >> Елабуга


ПОГОДА в Елабуге

  • Прогноз погоды в Елабуге
  • Монитор погоды в Елабуге

АРХИВ ПОГОДЫ в Елабуге

Время (UTC), дата Ветер
(напр.,м/с)
 
Видим.   Явления Облачность Т
(С)
Тd
(С)
f
(%)
Тe
(С)
Тes
(С)
Комфортность P
(гПа)
Po
(гПа)
Тmin
(С)
Tmax
(С)
R
(мм)
R24
(мм)
S
(см)
09 10.07 З 1 20 км 10/3 1000 м
[Sc Ac trans Ci fib]
+28.4 +21.0 64 +36 +36 очень
душно
1010.5 1003.5 +29.2
12 10.07 Ю 1 20 км 10/0
[Ac trans Ci fib]
+23.6 +21.2 86 +30 +30 очень
душно
1011.4 1004.3
15 10.07 Ю 2 20 км 10/0
[Ac trans Ci fib]
+22.1 +21.1 94 +29 +29 очень
душно
1011.7 1004.5
18 10.07 ЮВ 2 20 км 10/0
[Ac trans Ci fib]
+19.9 +18.9 94 +24 +24 комфорт 1011.3 1004.1
21 10.07 Ю 3 20 км 8/0
[Ci fib]
+20.2 +19.1 93 +24 +25 комфорт 1011.5 1004.3 +19.4
00 11.07 З 2 20 км 4/0
[Ci fib]
+25.9 +19.6 68 +31 +42 очень
душно
1011.0 1003.9
03 11.07 З 3 20 км 6/0
[Ci fib]
+28.6 +14.6 42 +31 +44 жарко 1009.2 1002.2
06 11.07 З 3 20 км 10/0
[Ci fib]
+28.5 +19.8 59 +34 +42 очень
душно
1007.6 1000.6
09 11.07 З 2 20 км 10/0
[Ci fib]
+26.6 +19.2 64 +32 +33 очень
душно
1007.0 1000.0 +29.1
12 11.07 Ю 2 20 км 10/0
[Ac trans Ci fib]
+22.3 +18.9 81 +28 +28 душно 1006.7 999.6
15 11.07 Ю 1 20 км 10/0
[Ci fib]
+21.2 +19.3 89 +26 +26 душно 1006.4 999.2
18 11.07 Ю 1 20 км 10/0
[Ci fib]
+20.0 +19.0 94 +24 +24 комфорт 1005.6 998.4
21 11.07 ЮВ 2 20 км 10/0
[Ac trans Ci sp]
+18.7 +17.4 92 +20 +21 1005.5 998.3 +18.1
00 12.07 СЗ 1 20 км 10/0
[Ci fib]
+24.1 +20.1 78 +30 +40 очень
душно
1005.5 998.4
03 12.07 С 1 20 км 10/0
[Ci fib]
+27.9 +19.0 58 +33 +50 очень
душно
1004.0 997.0
06 12.07 СВ 3 20 км 3/3 600 м
[Cb calv Ci fib]
+27.8 +20.8 66 +35 +41 очень
душно
1002.4 995.4
09 12.07 С 3 20 км 3/1 600 м
[Cb calv Ci fib]
+25.8 +19.9 70 +32 +33 очень
душно
1002.9 995.8 +29.2
12 12.07 С 2 20 км 8/3 600 м
[Cb cap Ci fib]
+21.3 +20.4 95 +27 +27 душно 1003.9 996.8
15 12.07 С 1 20 км 10/4 600 м
[Cb cap Ac trans Ci fib]
+19.2 +17.8 92 +22 +22 комфорт 1004.4 997.2
18 12.07 С 2 20 км 10/3 600 м
[Cb cap Ac trans Ci fib]
+18.0 +16.8 93 +19 +19 1004.6 997.4
21 12.07 С 2 20 км 10/8 800 м
[Cb cap Ac trans Ci fib]
+18.6 +17.1 91 +20 +20 1005.1 997.9 +17.9
00 13.07 С 2 20 км 10/9 800 м
[Cb cap Ci fib]
+20.5 +18.5 88 +25 +26 комфорт 1005.8 998.6
03 13.07 С 2 20 км 9/9 800 м
[Cb cap]
+23.7 +19.2 76 +29 +30 душно 1005.3 998.2
06 13.07 С 3 20 км 9/3 600 м
[Cb cap Ac trans Ci fib]
+25.0 +19.7 72 +30 +34 душно 1004.3 997.2
09 13.07 С 2 20 км 10/0
[Ac trans Ci fib]
+24.9 +20.0 74 +30 +32 душно 1003.8 996.7 +25.6
12 13.07 С 2 20 км 4/0
[Ac trans Ci fib]
+21.5 +18.9 85 +26 +26 душно 1004.9 997.8
15 13.07 С 2 20 км 5/0
[Ac trans Ci fib]
+19.1 +17.9 93 +21 +21 комфорт 1005.5 998.3
18 13.07 СВ 2 20 км 8/3 600 м
[Cb cap Ac trans]
+18.4 +17.2 93 +20 +20 1005.9 998.6
21 13.07 СВ 2 20 км 9/4 1000 м
[Sc Ac trans]
+18.4 +16.9 91 +20 +20 1006.8 999.6 +18.0
00 14.07 ЮВ 2 20 км 9/6
[Sc Ac trans]
+20.5 +15.5 73 +24 +27 комфорт 1007.5 1000.3
03 14.07 С 2 20 км 10/0
[Ac trans Ci fib]
+24.3 +17.3 65 +28 +37 душно 1007.3 1000.2
06 14.07 С 2 20 км 8/0
[Ac trans Ci fib]
+26.1 +17.8 60 +30 +38 душно 1006.6 999.6
09 14.07 СВ 2 20 км 6/1 1000 м
[Sc Ac trans Ci fib]
+25.4 +19.1 68 +30 +31 душно 1006.6 999.5 +26.5
12 14.07 ЮВ 2 20 км 8/0
[Ac trans Ci fib]
+21.6 +18.0 80 +26 +26 душно 1008.4 1001.3
15 14.07 ЮВ 3 20 км 10/4 1000 м
[Sc Ac trans Ci fib]
+19.6 +14.2 71 +22 +22 комфорт 1009.2 1002.0
18 14.07 ЮВ 3 20 км 10/0
[Ac trans Ci fib]
+18.0 +13.6 75 +18 +18 1009.7 1002.4
21 14.07 ЮВ 2 50 км 10/6 600 м
[Cb cap Ac trans Ci fib]
+18.4 +14.3 77 +19 +20 1011.0 1003.7 +17.5
00 15.07 Ю 2 50 км 8/3 600 м
[Cb cap Ac trans]
+20.3 +15.5 74 +24 +28 комфорт 1011.9 1004.7
03 15.07 Ю 1 50 км 6/1 1000 м
[Cu med, cong Ac trans Ci fib]
+25.7 +16.7 58 +29 +43 душно 1011.5 1004.4
06 15.07 ЮЗ 2 50 км 4/3 1000 м
[Cu med, cong Cc]
+27.5 +16.9 52 +31 +39 душно 1010.6 1003.6
09 15.07 Ю 1 20 км 3/0
[Ci fib]
+27.4 +17.8 56 +32 +34 очень
душно
1009.9 1002.9 +27.9
12 15.07 Ю 1 20 км 3/0
[Ci fib]
+22.9 +17.1 70 +28 +28 душно 1011.2 1004.1
15 15.07 ЮВ 2 20 км 5/0
[Ac trans Ci fib]
+19.8 +17.4 86 +23 +23 комфорт 1011.9 1004.7
18 15.07 ЮВ 2 20 км 8/3 1000 м
[Sc Ac trans Ci fib]
+18.9 +17.1 89 +21 +21 комфорт 1012.0 1004.8
21 15.07 ЮЗ 2 20 км 9/9 660 м
[Cb cap]
+20.0 +19.0 94 +24 +24 комфорт 1013.2 1006.0 +17.7
00 16.07 Ю 4 20 км в посл. час ливневой дождь 9/6 600 м
[Cb cap Ac trans]
+20.5 +19.2 92 +25 +26 комфорт 1013.3 1006.0
03 16.07 Ю 2 50 км 10/3 600 м
[Cu med, cong Ac trans Ci fib]
+25.3 +19.4 70 +31 +37 очень
душно
1012.3 1005.2
06 16.07 З 4 20 км 9/3 1000 м
[Cu med, cong Ac trans Ci fib]
+26.4 +20.2 69 +33 +35 очень
душно
1010.5 1003.4
09 16.07 З 1 20 км 9/1 600 м
[Cb calv Ci fib]
+27.3 +19.9 64 +33 +35 очень
душно
1009.5 1002.5 +27.6 1
12 16.07 ЮЗ 1 20 км 3/0
[Ac trans Ci fib]
+22.4 +19.5 84 +28 +28 душно 1010.9 1003.7
15 16.07 ЮВ 1 20 км 3/0
[Ci fib]
+20.9 +18.2 85 +26 +26 душно 1010.6 1003.4
18 16.07 Ю 2 20 км 8/3 600 м
[Cb cap Ac trans Ci fib]
+18.9 +18.0 95 +21 +21 комфорт 1010.7 1003.4
21 16.07 Ю 3 20 км 3/1 1000 м
[Sc Ci fib]
+18.7 +17.8 95 +20 +21 1010.2 1002.9 +18.3
00 17.07 Ю 3 50 км 10/3 1000 м
[Sc Ac trans Ci fib]
+24.7 +19.1 71 +30 +33 очень
душно
1009.5 1002.4
03 17.07 Ю 3 20 км 10/6 600 м
[Cb cap Ac trans Ci fib]
+26.3 +18.4 62 +31 +34 душно 1008.0 1000.9

 

Местоположение метеостанции Елабуга (Хабаровский край, Россия): широта 48.82 долгота 135.80 высота над уровнем моря 58 м.

В архиве по умолчанию представлена погода в Елабуге за последнюю неделю. Архивные данные за месяц целиком и за предыдущие месяцы, начиная с января 2011 года, Вы можете получить, выбрав интересующий диапазон дат из раскрывающегося списка и нажав кнопку "Ввод!".


*Определитесь, кто Вы:
робот инопланетянин человек

Внимание! Время в таблицах - всемирное. Для получения местного времени необходимо прибавить поправку, которая равна 10 ч.

Смотрите также архив погоды в соседних городах и на ближайших метеорологических станциях:

Погода в Князе-Волконском (Хабаровский край, Россия) (45 км)
Погода в Хабаровске 21 км (Хабаровский край, Россия) (51 км)
Погода в Хабаровске (Хабаровский край, Россия) (61 км)
Погода в Хабаровске Агромет (Хабаровский край, Россия) (62 км)
Погода в Хабаровске Аэр. Большой (Хабаровский край, Россия) (64 км)
Погода на Хабаровск Мосту (Хабаровский край, Россия) (66 км)
Погода в Хабаровске АМС (Хабаровский край, Россия) (67 км)
Погода в Литовко (Хабаровский край, Россия) (68 км)
Погода в Оборе (Хабаровский край, Россия) (83 км)
Погода в Троицком (Хабаровский край, Россия) (89 км)

Пояснения к столбцам:

Ветер - указаны скорость ветра в м/с - средняя за 10 мин, порывы в срок и между сроками (в фигурных скобках) и направление, откуда дует ветер: С - северный, СВ - северо-восточный, В - восточный, ЮВ - юго-восточный, Ю - южный, ЮЗ - юго-западный, З - западный, СЗ - северо-западный.
Видимость - горизонтальная дальность видимости в метрах или километрах. При видимости от 1 до 10 км при отсутствии осадков обычно наблюдается дымка, при ухудшении видимости до 1 км и менее - туман. В сухую погоду видимость может ухудшаться дымом, пылью или мглою.
Явления - указаны атмосферные явления, наблюдавшиеся в срок или в последний час перед сроком; фигурными скобками обозначены явления, наблюдавшиеся между сроками (за 1-3 часа до срока); квадратными скобками обозначены град или гололедные отложения с указанием их диаметра в мм.
Облачность - указаны через наклонную черту общая и нижняя облачность в баллах и высота нижней границы облаков в метрах; квадратными скобками обозначены формы облаков: Ci - перистые, Cs - перисто-слоистые, Cc - перисто-кучевые, Ac - высококучевые, As - высокослоистые, Sc - слоисто-кучевые, Ns - слоисто-дождевые, Cu - кучевые, Cb - кучево-дождевые. Подробнее классификацию облаков см. в Атласе облаков (PDF).
T - Температура воздуха - температура, измеренная на высоте 2 м над землей.
Td - Температура точки росы - температура, при понижении до которой содержащийся в воздухе водяной пар достигнет насыщения.
f - Относительная влажность воздуха - влажноcть воздуха, измеренная на высоте 2 м над землей.
Te - Эффективная температура - температура, которую ощущает одетый по сезону человек в тени. Характеристика душности погоды. При расчете учитывается влияние влажности воздуха и скорости ветра на теплоощущения человека.
Tes - Эффективная температура на солнце - температура, которую ощущает человек, с поправкой на солнечный нагрев. Характеристика знойности погоды. Зависит от высоты солнца над горизонтом, облачности и скорости ветра. Ночью, в пасмурную погоду, а также при ветре 12 м/с и более поправка равна нулю.
P - Атмосферное давление - приведенное к уровню моря атмосферное давление.
Po - Атмосферное давление - измеренное на уровне метеостанции атмосферное давление.
Tmin - Минимальная температура - минимум температуры воздуха на высоте 2 м над землей.
Tmax - Максимальная температура - максимум температуры воздуха на высоте 2 м над землей.
R - Количество осадков - Количество выпавших осадков за период времени, мм. При наведении курсора мыши на число - период времени, за который выпало указанное количество осадков.
R24 - Количество осадков - Количество выпавших осадков за 24 часа, мм.
S - Снежный покров - Высота снежного покрова, см. При наведении курсора мыши на число - состояние снежного покрова и степень покрытия местности в баллах.